Ketchikan, AK

9:08 AM AKDT on October 16, 2018 (GMT -0800)
Ketchikan International

Weather History for PAKT - June, 2018

Change the Weather History Date:

Tuesday, June 26, 2018

  Actual Average Record
Temperature  
Mean Temperature 56 °F -  
Max Temperature 61 °F 62 °F 75 °F (1980)
Min Temperature 48 °F 48 °F 38 °F (1971)
Degree Days  
Heating Degree Days 10    
Growing Degree Days 6 (Base 50)    
Moisture  
Dew Point 42 °F    
Average Humidity 62    
Maximum Humidity 77    
Minimum Humidity 45    
Precipitation  
Precipitation 0.00 in - - ()
Sea Level Pressure  
Sea Level Pressure 30.14 in    
Wind  
Wind Speed 8 mph (NW)    
Max Wind Speed 10 mph    
Max Gust Speed 21 mph    
Visibility 10 miles    
Events      
Averages and records for this station are not official NWS values.
T = Trace of Precipitation, MM = Missing Value Source: NWS Daily Summary

Daily Weather History Graph

Daily Weather History Graph

Search for Another Location

Airport or City:

Astronomy

Jun. 26, 2018 Rise Set
Actual Time 4:06 AM AKDT 9:32 PM AKDT
Civil Twilight 3:07 AM AKDT 10:31 PM AKDT
Nautical Twilight 1:22 AM AKDT 12:17 AM AKDT
Astronomical Twilight Sun does not rise Sun does not rise
Moon 8:07 PM AKDT (6/26) 3:30 AM AKDT (6/26)
Length of Visible Light 19h 24m
Length of Day
17h 25m
Waxing Gibbous, 98% of the Moon is Illuminated
Jun 26
Waxing Gibbous
Jun 27
Full
Jul 5
Last Quarter
Jul 12
New
Jul 19
First Quarter

Hourly Weather History & Observations

Time (AKDT) Temp. Dew Point Humidity Pressure Visibility Wind Dir Wind Speed Gust Speed Precip Events Conditions
12:53 AM 53.1 °F 41.0 °F 64% 30.08 in 10.0 mi WNW 10.4 mph 20.7 mph N/A   Clear
1:53 AM 52.0 °F 42.1 °F 69% 30.09 in 10.0 mi NW 9.2 mph 19.6 mph N/A   Partly Cloudy
2:53 AM 53.1 °F 41.0 °F 64% 30.10 in 10.0 mi WNW 9.2 mph - N/A   Scattered Clouds
3:53 AM 53.1 °F 41.0 °F 64% 30.11 in 10.0 mi WNW 8.1 mph - N/A   Mostly Cloudy
4:53 AM 52.0 °F 41.0 °F 66% 30.12 in 10.0 mi WNW 6.9 mph - N/A   Mostly Cloudy
5:53 AM 52.0 °F 41.0 °F 66% 30.12 in 10.0 mi NW 5.8 mph - N/A   Clear
6:04 AM 52.0 °F 41.0 °F 66% 30.11 in 10.0 mi WNW 6.9 mph - N/A   Mostly Cloudy
6:53 AM 53.6 °F 41.0 °F 62% 30.11 in 10.0 mi WNW 10.4 mph 18.4 mph N/A   Mostly Cloudy
7:53 AM 53.6 °F 42.8 °F 67% 30.13 in 10.0 mi NW 10.4 mph - N/A   Overcast
8:53 AM 55.4 °F 42.8 °F 63% 30.13 in 10.0 mi WNW 10.4 mph - N/A   Overcast
9:53 AM 55.4 °F 42.8 °F 63% 30.14 in 10.0 mi NW 9.2 mph - N/A   Overcast
10:53 AM 57.2 °F 39.2 °F 51% 30.14 in 10.0 mi NNW 9.2 mph - N/A   Overcast
11:53 AM 57.2 °F 39.2 °F 51% 30.15 in 10.0 mi Variable 6.9 mph 17.3 mph N/A   Overcast
1:53 PM 60.8 °F 39.2 °F 45% 30.17 in 10.0 mi North 6.9 mph - N/A   Overcast
2:53 PM 59.0 °F 42.8 °F 55% 30.18 in 10.0 mi North 6.9 mph - N/A   Overcast
3:53 PM 57.2 °F 44.6 °F 63% 30.19 in 10.0 mi Variable 5.8 mph - N/A   Overcast
4:53 PM 57.2 °F 42.8 °F 59% 30.19 in 10.0 mi Variable 3.5 mph - N/A   Overcast
5:53 PM 57.2 °F 42.8 °F 59% 30.18 in 10.0 mi Variable 3.5 mph - N/A   Overcast
6:53 PM 57.2 °F 42.8 °F 59% 30.17 in 10.0 mi Variable 4.6 mph - N/A   Overcast
7:53 PM 57.2 °F 42.8 °F 59% 30.17 in 10.0 mi Calm Calm - N/A   Scattered Clouds
8:53 PM 55.9 °F 43.0 °F 62% 30.17 in 10.0 mi Calm Calm - N/A   Mostly Cloudy
9:53 PM 54.0 °F 42.1 °F 64% 30.17 in 10.0 mi Calm Calm - N/A   Mostly Cloudy
10:53 PM 51.1 °F 43.0 °F 74% 30.17 in 10.0 mi SE 3.5 mph - N/A   Partly Cloudy
11:53 PM 48.9 °F 42.1 °F 77% 30.17 in 10.0 mi SSE 3.5 mph - N/A   Mostly Cloudy